Regional Weather Roundup
Issued by NWS Sioux Falls, SD

Home | Current Version | Previous Version | Graphics & Text | Print | Product List | Glossary On
Versions: 1 2 3 4 5 6 7 8 9 10 11 12 13 14 15 16 17 18 19 20 21 22 23 24 25 26 27 28 29 30 31 32 33 34 35 36 37 38 39 40 41 42 43 44 45 46 47 48 49 50
000
ASUS43 KFSD 021302
RWRFSD

WEATHER ROUNDUP FOR SE SOUTH DAKOTA/SW MINNESOTA/NW IOWA
NATIONAL WEATHER SERVICE SIOUX FALLS SD
800 AM CDT SUN AUG 02 2015

NOTE: "FAIR" INDICATES FEW OR NO CLOUDS BELOW 12,000 FEET WITH NO
SIGNIFICANT WEATHER AND OR OBSTRUCTIONS TO VISIBILITY.


SDZ038>040-050-052>070-021400-
SOUTHEAST SOUTH DAKOTA

CITY           SKY/WX    TMP DP  RH WIND       PRES   REMARKS
BROOKINGS      MOSUNNY   68  61  77 SW6       29.76S
CHAMBERLAIN    SUNNY     68  62  81 W5        29.81R
HURON          MOSUNNY   66  61  84 W6        29.74R
MADISON        FAIR      68  64  88 W8        29.77S
MITCHELL       SUNNY     68  62  81 SW5       29.77S
SIOUX FALLS    MOSUNNY   68  61  78 SW6       29.77S
WINNER         FAIR      73  58  59 W6        29.84R
YANKTON        SUNNY     66  64  94 W6        29.78S
$$

MNZ071-072-080-081-089-090-097-098-021400-
SOUTHWEST MINNESOTA

CITY           SKY/WX    TMP DP  RH WIND       PRES   REMARKS
FAIRMONT       SUNNY     73  64  73 SW15      29.74S
JACKSON        SUNNY     72  68  88 SW13G18   29.76F
LUVERNE        SUNNY     64  63  94 S5        29.78F
MARSHALL       SUNNY     75  57  53 W17G25    29.69S
MONTEVIDEO     SUNNY     73  66  78 NW7       29.66S
PIPESTONE      SUNNY     66  63  88 SW7       29.77S
REDWOOD FALLS  SUNNY     71  62  73 SW9       29.65F
TRACY          SUNNY     72  63  73 W16       29.71S
WINDOM         SUNNY     70  64  83 SW14G20   29.74S
WORTHINGTON    SUNNY     70  63  78 SW16      29.76F
$$

IAZ001>003-012>014-020>022-031-032-NEZ013-014-SDZ071-021400-
NORTHWEST IOWA

CITY           SKY/WX    TMP DP  RH WIND       PRES   REMARKS
DENISON        SUNNY     72  68  88 SW8       29.81R
ESTHERVILLE    SUNNY     72  67  84 SW15G24   29.76F
SIOUX CITY     SUNNY     72  66  81 E5        29.81R
SPENCER        SUNNY     73  67  81 SW13      29.78F
STORM LAKE     SUNNY     72  68  88 SW12      29.81F
$$

ABBREVIATIONS USED IN REMARKS
   TC - TEMPERATURE IN CELSIUS
  WCI - WIND CHILL INDEX
   HX - HEAT INDEX
  VSB - VISIBILITY



USA.gov is the U.S. government's official web portal to all federal, state and local government web resources and services.